| time (UTC) | temp F | wind direction | speed knots | gust knots | rain 1hr in | rain 24hr in | rain mn in | humidity % | barometer mb |
| 20260504183024 | 73 | 188 | 1.7 | 7.0 | 0.00 | 0.00 | 0.00 | 35 | 1010.9 |
| 20260504182509 | 73 | 282 | 2.6 | 7.0 | 0.00 | 0.00 | 0.00 | 35 | 1011.0 |
| 20260504182010 | 73 | 191 | 2.6 | 7.0 | 0.00 | 0.00 | 0.00 | 33 | 1011.1 |
| 20260504181508 | 73 | 250 | 1.7 | 4.3 | 0.00 | 0.00 | 0.00 | 33 | 1011.1 |
| 20260504181004 | 73 | 229 | 0.9 | 6.1 | 0.00 | 0.00 | 0.00 | 38 | 1011.2 |
| 20260504180507 | 72 | 138 | 0.9 | 8.7 | 0.00 | 0.00 | 0.00 | 40 | 1011.3 |
| 20260504180010 | 72 | 235 | 2.6 | 8.7 | 0.00 | 0.00 | 0.00 | 35 | 1011.4 |
| 20260504175505 | 72 | 221 | 1.7 | 7.0 | 0.00 | 0.00 | 0.00 | 37 | 1011.3 |
| 20260504175009 | 72 | 269 | 1.7 | 12.2 | 0.00 | 0.00 | 0.00 | 35 | 1011.6 |
| 20260504174514 | 72 | 134 | 2.6 | 12.2 | 0.00 | 0.00 | 0.00 | 35 | 1011.7 |
| 20260504174009 | 72 | 263 | 3.5 | 12.2 | 0.00 | 0.00 | 0.00 | 33 | 1011.7 |
| 20260504173513 | 72 | 299 | 1.7 | 5.2 | 0.00 | 0.00 | 0.00 | 38 | 1011.8 |
| 20260504173033 | 71 | 260 | 1.7 | 6.1 | 0.00 | 0.00 | 0.00 | 38 | 1011.9 |
| 20260504172508 | 71 | 267 | 2.6 | 7.8 | 0.00 | 0.00 | 0.00 | 36 | 1011.9 |
| 20260504172009 | 71 | 231 | 1.7 | 7.8 | 0.00 | 0.00 | 0.00 | 35 | 1012.0 |
| 20260504171523 | 71 | 257 | 3.5 | 7.0 | 0.00 | 0.00 | 0.00 | 32 | 1012.2 |
| 20260504171009 | 71 | 185 | 2.6 | 7.0 | 0.00 | 0.00 | 0.00 | 35 | 1012.2 |
| 20260504170505 | 71 | 317 | 1.7 | 6.1 | 0.00 | 0.00 | 0.00 | 38 | 1012.2 |
| 20260504151013 | 67 | 311 | 0.9 | 5.2 | 0.00 | 0.00 | 0.00 | 46 | 1013.7 |
| 20260504150511 | 67 | 290 | 1.7 | 7.8 | 0.00 | 0.00 | 0.00 | 43 | 1013.8 |
| 20260504141014 | 63 | 235 | 1.7 | 6.1 | 0.00 | 0.00 | 0.00 | 56 | 1013.9 |
| 20260504140508 | 63 | 228 | 0.9 | 7.0 | 0.00 | 0.00 | 0.00 | 54 | 1013.9 |
| 20260504130510 | 59 | 235 | 2.6 | 6.1 | 0.00 | 0.00 | 0.00 | 61 | 1014.3 |
| 20260504110507 | 49 | 234 | 0.9 | 4.3 | 0.00 | 0.00 | 0.00 | 77 | 1014.7 |
| 20260504100506 | 48 | 254 | 0.0 | 5.2 | 0.00 | 0.00 | 0.00 | 72 | 1014.7 |
| 20260504082007 | 45 | 262 | 0.0 | 1.7 | 0.00 | 0.00 | 0.00 | 66 | 1014.7 |
| 20260504081524 | 45 | 262 | 0.0 | 1.7 | 0.00 | 0.00 | 0.00 | 66 | 1014.6 |
| 20260504081007 | 45 | 273 | 0.0 | 1.7 | 0.00 | 0.00 | 0.00 | 66 | 1014.6 |
| 20260504080503 | 44 | 242 | 0.0 | 0.0 | 0.00 | 0.00 | 0.00 | 64 | 1014.6 |
| 20260504050507 | 47 | 258 | 0.0 | 1.7 | 0.00 | 0.00 | 0.00 | 56 | 1014.4 |
| 20260504045507 | 47 | 258 | 0.0 | 1.7 | 0.00 | 0.00 | 0.00 | 56 | 1014.3 |
| 20260504045009 | 48 | 265 | 0.0 | 1.7 | 0.00 | 0.00 | 0.00 | 56 | 1014.4 |
| 20260504044537 | 48 | 242 | 0.0 | 1.7 | 0.00 | 0.00 | 0.00 | 55 | 1014.4 |
| 20260504044010 | 48 | 257 | 0.0 | 1.7 | 0.00 | 0.00 | 0.00 | 54 | 1014.4 |
| 20260504043510 | 48 | 254 | 0.0 | 1.7 | 0.00 | 0.00 | 0.00 | 54 | 1014.3 |
| 20260504043033 | 49 | 244 | 0.0 | 1.7 | 0.00 | 0.00 | 0.00 | 53 | 1014.3 |
| 20260504042505 | 49 | 254 | 0.0 | 1.7 | 0.00 | 0.00 | 0.00 | 53 | 1014.2 |
| 20260504042009 | 49 | 246 | 0.0 | 1.7 | 0.00 | 0.00 | 0.00 | 52 | 1014.2 |
| 20260504041517 | 49 | 246 | 0.0 | 1.7 | 0.00 | 0.00 | 0.00 | 52 | 1014.1 |
| 20260504041007 | 49 | 249 | 0.0 | 1.7 | 0.00 | 0.00 | 0.00 | 52 | 1014.0 |
| 20260504040510 | 49 | 254 | 0.0 | 1.7 | 0.00 | 0.00 | 0.00 | 52 | 1014.0 |
| 20260504040022 | 50 | 248 | 0.0 | 1.7 | 0.00 | 0.00 | 0.00 | 51 | 1014.0 |
| 20260504035511 | 50 | 286 | 0.0 | 1.7 | 0.00 | 0.00 | 0.00 | 51 | 1014.0 |
| 20260504035010 | 50 | 249 | 0.0 | 1.7 | 0.00 | 0.00 | 0.00 | 51 | 1013.9 |
| 20260504034533 | 50 | 277 | 0.9 | 1.7 | 0.00 | 0.00 | 0.00 | 51 | 1013.9 |
| 20260504034006 | 50 | 271 | 0.0 | 1.7 | 0.00 | 0.00 | 0.00 | 51 | 1013.8 |
| 20260504033515 | 50 | 248 | 0.0 | 5.2 | 0.00 | 0.00 | 0.00 | 51 | 1013.9 |
| 20260504033037 | 50 | 252 | 0.9 | 5.2 | 0.00 | 0.00 | 0.00 | 52 | 1013.8 |
| 20260504032507 | 49 | 250 | 0.0 | 1.7 | 0.00 | 0.00 | 0.00 | 51 | 1013.9 |
| 20260504032009 | 50 | 229 | 0.0 | 1.7 | 0.00 | 0.00 | 0.00 | 51 | 1013.9 |
| 20260504031516 | 50 | 258 | 0.0 | 1.7 | 0.00 | 0.00 | 0.00 | 50 | 1013.8 |
| 20260504031008 | 50 | 221 | 0.0 | 1.7 | 0.00 | 0.00 | 0.00 | 51 | 1013.8 |
| 20260504030507 | 50 | 261 | 0.9 | 1.7 | 0.00 | 0.00 | 0.00 | 50 | 1013.8 |
| 20260504030020 | 50 | 244 | 0.0 | 1.7 | 0.00 | 0.00 | 0.00 | 51 | 1013.8 |
| 20260504025508 | 49 | 231 | 0.0 | 1.7 | 0.00 | 0.00 | 0.00 | 51 | 1013.8 |
| 20260504025009 | 49 | 277 | 0.9 | 1.7 | 0.00 | 0.00 | 0.00 | 51 | 1013.9 |
| 20260504024525 | 49 | 238 | 0.0 | 1.7 | 0.00 | 0.00 | 0.00 | 51 | 1013.9 |
| 20260504024012 | 49 | 244 | 0.0 | 1.7 | 0.00 | 0.00 | 0.00 | 51 | 1013.9 |
| 20260504023512 | 49 | 258 | 0.0 | 1.7 | 0.00 | 0.00 | 0.00 | 51 | 1013.9 |
| 20260504023026 | 49 | 242 | 0.0 | 1.7 | 0.00 | 0.00 | 0.00 | 51 | 1013.9 |
| 20260504022510 | 49 | 240 | 0.0 | 1.7 | 0.00 | 0.00 | 0.00 | 53 | 1013.9 |
| 20260504022012 | 49 | 236 | 0.0 | 1.7 | 0.00 | 0.00 | 0.00 | 52 | 1013.9 |
| 20260504021533 | 49 | 259 | 0.0 | 1.7 | 0.00 | 0.00 | 0.00 | 54 | 1014.0 |
| 20260504021009 | 49 | 242 | 0.0 | 1.7 | 0.00 | 0.00 | 0.00 | 52 | 1013.9 |
| 20260504020507 | 49 | 242 | 0.0 | 1.7 | 0.00 | 0.00 | 0.00 | 53 | 1013.9 |
| 20260504020020 | 49 | 245 | 0.0 | 1.7 | 0.00 | 0.00 | 0.00 | 53 | 1013.8 |
| 20260504015508 | 49 | 245 | 0.0 | 1.7 | 0.00 | 0.00 | 0.00 | 51 | 1013.8 |
| 20260504015009 | 49 | 234 | 0.0 | 1.7 | 0.00 | 0.00 | 0.00 | 51 | 1013.8 |
| 20260504014523 | 49 | 234 | 0.0 | 1.7 | 0.00 | 0.00 | 0.00 | 51 | 1013.7 |
| 20260504014010 | 49 | 221 | 0.0 | 1.7 | 0.00 | 0.00 | 0.00 | 52 | 1013.7 |
| 20260504013509 | 49 | 232 | 0.0 | 1.7 | 0.00 | 0.00 | 0.00 | 52 | 1013.7 |
| 20260504013033 | 50 | 248 | 0.0 | 1.7 | 0.00 | 0.00 | 0.00 | 52 | 1013.6 |
| 20260504012508 | 50 | 229 | 0.0 | 1.7 | 0.00 | 0.00 | 0.00 | 52 | 1013.5 |
| 20260504012010 | 50 | 232 | 0.0 | 1.7 | 0.00 | 0.00 | 0.00 | 53 | 1013.5 |
| 20260504011526 | 50 | 236 | 0.0 | 1.7 | 0.00 | 0.00 | 0.00 | 50 | 1013.4 |
| 20260504011011 | 50 | 236 | 0.0 | 1.7 | 0.00 | 0.00 | 0.00 | 50 | 1013.3 |
| 20260504010520 | 51 | 236 | 0.0 | 1.7 | 0.00 | 0.00 | 0.00 | 50 | 1013.3 |
| 20260504010028 | 51 | 236 | 0.0 | 0.0 | 0.00 | 0.00 | 0.00 | 50 | 1013.3 |
| 20260504005508 | 52 | 236 | 0.0 | 0.9 | 0.00 | 0.00 | 0.00 | 49 | 1013.2 |
| 20260504005006 | 52 | 236 | 0.0 | 0.9 | 0.00 | 0.00 | 0.00 | 49 | 1013.2 |
| 20260504004520 | 52 | 236 | 0.0 | 0.9 | 0.00 | 0.00 | 0.00 | 46 | 1013.1 |
| 20260504004010 | 53 | 236 | 0.0 | 1.7 | 0.00 | 0.00 | 0.00 | 46 | 1013.1 |
| 20260504003510 | 53 | 236 | 0.0 | 1.7 | 0.00 | 0.00 | 0.00 | 46 | 1012.9 |
| 20260504003023 | 54 | 226 | 0.0 | 1.7 | 0.00 | 0.00 | 0.00 | 45 | 1012.8 |
| 20260504002509 | 54 | 226 | 0.0 | 1.7 | 0.00 | 0.00 | 0.00 | 44 | 1012.8 |
| 20260504002010 | 55 | 233 | 0.0 | 1.7 | 0.00 | 0.00 | 0.00 | 46 | 1012.8 |
| 20260504001526 | 55 | 223 | 0.0 | 1.7 | 0.00 | 0.00 | 0.00 | 44 | 1012.7 |
| 20260504001010 | 55 | 223 | 0.0 | 1.7 | 0.00 | 0.00 | 0.00 | 43 | 1012.7 |
| 20260504000508 | 56 | 215 | 0.0 | 1.7 | 0.00 | 0.00 | 0.00 | 40 | 1012.6 |
| 20260504000028 | 56 | 249 | 0.0 | 1.7 | 0.00 | 0.00 | 0.00 | 39 | 1012.5 |
| 20260503235507 | 56 | 254 | 0.0 | 1.7 | 0.00 | 0.00 | 0.00 | 39 | 1012.4 |
| 20260503235008 | 56 | 219 | 0.0 | 2.6 | 0.00 | 0.00 | 0.00 | 39 | 1012.4 |
| 20260503234528 | 56 | 255 | 0.0 | 2.6 | 0.00 | 0.00 | 0.00 | 38 | 1012.3 |
| 20260503234016 | 57 | 260 | 0.9 | 3.5 | 0.00 | 0.00 | 0.00 | 37 | 1012.2 |
| 20260503233507 | 57 | 271 | 0.9 | 3.5 | 0.00 | 0.00 | 0.00 | 38 | 1012.3 |
| 20260503233019 | 57 | 240 | 0.9 | 2.6 | 0.00 | 0.00 | 0.00 | 36 | 1012.2 |
| 20260503232510 | 57 | 251 | 0.0 | 2.6 | 0.00 | 0.00 | 0.00 | 39 | 1012.2 |
| 20260503232015 | 58 | 233 | 0.9 | 2.6 | 0.00 | 0.00 | 0.00 | 37 | 1012.1 |
| 20260503231525 | 58 | 253 | 0.0 | 4.3 | 0.00 | 0.00 | 0.00 | 36 | 1012.1 |
| 20260503231012 | 58 | 251 | 1.7 | 7.0 | 0.00 | 0.00 | 0.00 | 36 | 1012.1 |
| 20260503230509 | 58 | 272 | 0.9 | 7.0 | 0.00 | 0.00 | 0.00 | 36 | 1012.1 |
| 20260503230028 | 58 | 284 | 1.7 | 7.0 | 0.00 | 0.00 | 0.00 | 36 | 1012.1 |
| 20260503225507 | 58 | 279 | 0.9 | 3.5 | 0.00 | 0.00 | 0.00 | 34 | 1011.9 |
| 20260503225009 | 58 | 292 | 0.9 | 6.1 | 0.00 | 0.00 | 0.00 | 35 | 1011.9 |
| 20260503224515 | 59 | 305 | 0.9 | 4.3 | 0.00 | 0.00 | 0.00 | 35 | 1011.9 |
| 20260503224009 | 59 | 302 | 0.9 | 3.5 | 0.00 | 0.00 | 0.00 | 34 | 1011.9 |
| 20260503223511 | 59 | 275 | 1.7 | 5.2 | 0.00 | 0.00 | 0.00 | 32 | 1011.9 |
| 20260503223020 | 59 | 299 | 0.9 | 5.2 | 0.00 | 0.00 | 0.00 | 35 | 1011.8 |
| 20260503222510 | 59 | 306 | 1.7 | 3.5 | 0.00 | 0.00 | 0.00 | 34 | 1011.8 |
| 20260503222010 | 59 | 250 | 0.9 | 3.5 | 0.00 | 0.00 | 0.00 | 33 | 1011.8 |
| 20260503221530 | 59 | 216 | 1.7 | 3.5 | 0.00 | 0.00 | 0.00 | 33 | 1011.7 |
| 20260503221003 | 60 | 332 | 0.9 | 3.5 | 0.00 | 0.00 | 0.00 | 34 | 1011.8 |
| 20260503220504 | 60 | 275 | 0.9 | 4.3 | 0.00 | 0.00 | 0.00 | 33 | 1011.8 |
| 20260503220008 | 60 | 320 | 0.9 | 4.3 | 0.00 | 0.00 | 0.00 | 34 | 1011.7 |
| 20260503215506 | 60 | 268 | 1.7 | 4.3 | 0.00 | 0.00 | 0.00 | 31 | 1011.8 |
| 20260503215008 | 60 | 240 | 0.9 | 4.3 | 0.00 | 0.00 | 0.00 | 34 | 1011.9 |
| 20260503214513 | 61 | 333 | 1.7 | 4.3 | 0.00 | 0.00 | 0.00 | 32 | 1011.8 |
| 20260503214012 | 61 | 272 | 2.6 | 4.3 | 0.00 | 0.00 | 0.00 | 32 | 1011.8 |
| 20260503213509 | 61 | 300 | 0.9 | 3.5 | 0.00 | 0.00 | 0.00 | 33 | 1011.7 |
| 20260503213028 | 61 | 173 | 1.7 | 4.3 | 0.00 | 0.00 | 0.00 | 31 | 1011.8 |
| 20260503212509 | 61 | 222 | 1.7 | 7.0 | 0.00 | 0.00 | 0.00 | 32 | 1011.8 |
| 20260503212012 | 61 | 279 | 1.7 | 7.0 | 0.00 | 0.00 | 0.00 | 31 | 1011.8 |
| 20260503211522 | 61 | 224 | 2.6 | 5.2 | 0.00 | 0.00 | 0.00 | 32 | 1011.9 |
| 20260503211014 | 61 | 248 | 0.9 | 3.5 | 0.00 | 0.00 | 0.00 | 32 | 1011.9 |
| 20260503210508 | 61 | 284 | 0.9 | 3.5 | 0.00 | 0.00 | 0.00 | 35 | 1011.9 |
| 20260503210006 | 61 | 296 | 1.7 | 4.3 | 0.00 | 0.00 | 0.00 | 32 | 1011.9 |
| 20260503205504 | 61 | 241 | 1.7 | 5.2 | 0.00 | 0.00 | 0.00 | 33 | 1011.9 |
| 20260503205008 | 61 | 308 | 1.7 | 6.1 | 0.00 | 0.00 | 0.00 | 32 | 1012.0 |
| 20260503204511 | 61 | 276 | 2.6 | 6.1 | 0.00 | 0.00 | 0.00 | 32 | 1012.0 |
| 20260503204008 | 61 | 293 | 1.7 | 7.8 | 0.00 | 0.00 | 0.00 | 33 | 1012.1 |
| 20260503203507 | 61 | 257 | 2.6 | 7.8 | 0.00 | 0.00 | 0.00 | 34 | 1012.3 |
| 20260503203016 | 62 | 320 | 1.7 | 6.1 | 0.00 | 0.00 | 0.00 | 34 | 1012.2 |
| 20260503202509 | 62 | 305 | 1.7 | 5.2 | 0.00 | 0.00 | 0.00 | 34 | 1012.2 |
| 20260503202010 | 61 | 306 | 1.7 | 6.1 | 0.00 | 0.00 | 0.00 | 35 | 1012.2 |
| 20260503201528 | 60 | 288 | 1.7 | 6.1 | 0.00 | 0.00 | 0.00 | 36 | 1012.3 |
| 20260503201008 | 60 | 315 | 1.7 | 4.3 | 0.00 | 0.00 | 0.00 | 35 | 1012.2 |
| 20260503200510 | 61 | 255 | 0.9 | 7.0 | 0.00 | 0.00 | 0.00 | 36 | 1012.3 |
| 20260503200030 | 60 | 246 | 0.9 | 13.0 | 0.00 | 0.00 | 0.00 | 37 | 1012.3 |
| 20260503195509 | 60 | 238 | 1.7 | 13.0 | 0.00 | 0.00 | 0.00 | 35 | 1012.3 |
| 20260503195006 | 60 | 277 | 4.3 | 8.7 | 0.00 | 0.00 | 0.00 | 34 | 1012.3 |
| 20260503194510 | 60 | 315 | 1.7 | 9.6 | 0.00 | 0.00 | 0.00 | 37 | 1012.4 |
| 20260503194007 | 60 | 288 | 0.9 | 9.6 | 0.00 | 0.00 | 0.00 | 35 | 1012.4 |
| 20260503193506 | 60 | 283 | 1.7 | 6.1 | 0.00 | 0.00 | 0.00 | 34 | 1012.7 |
| 20260503193013 | 60 | 283 | 0.9 | 7.8 | 0.00 | 0.00 | 0.00 | 35 | 1012.7 |
| 20260503192507 | 60 | 279 | 2.6 | 7.8 | 0.00 | 0.00 | 0.00 | 33 | 1012.8 |
| 20260503192011 | 60 | 196 | 1.7 | 9.6 | 0.00 | 0.00 | 0.00 | 33 | 1012.7 |
| 20260503191522 | 60 | 307 | 2.6 | 9.6 | 0.00 | 0.00 | 0.00 | 32 | 1012.7 |
| 20260503191007 | 60 | 308 | 2.6 | 7.8 | 0.00 | 0.00 | 0.00 | 37 | 1012.8 |
| 20260503190507 | 59 | 275 | 2.6 | 7.8 | 0.00 | 0.00 | 0.00 | 35 | 1012.9 |
| 20260503190024 | 58 | 308 | 2.6 | 7.8 | 0.00 | 0.00 | 0.00 | 34 | 1012.8 |
| 20260503185510 | 58 | 28 | 1.7 | 6.1 | 0.00 | 0.00 | 0.00 | 35 | 1012.9 |
| 20260503185011 | 59 | 319 | 2.6 | 7.0 | 0.00 | 0.00 | 0.00 | 35 | 1013.0 |
| 20260503184527 | 59 | 290 | 2.6 | 7.0 | 0.00 | 0.00 | 0.00 | 32 | 1013.0 |
| 20260503184004 | 59 | 43 | 2.6 | 7.0 | 0.00 | 0.00 | 0.00 | 35 | 1013.0 |
| 20260503183512 | 59 | 310 | 1.7 | 4.3 | 0.00 | 0.00 | 0.00 | 38 | 1013.0 |